Radiation Dose at Monitoring Post of Fukushima Daini Nuclear Power Station
Date,Time,MP-1(microSv/h),MP-2(microSv/h),MP-3(microSv/h),MP-4(microSv/h),MP-5(microSv/h),MP-6(microSv/h),MP-7(microSv/h),Wind Direction,Wind Velocity(m/s),Rain
2016/02/10,00:00,0.453,0.264,0.476,0.432,0.395,0.219,0.191,north,4.4,No
2016/02/10,00:10,0.455,0.265,0.477,0.432,0.397,0.218,0.191,north-northwest,4.3,No
2016/02/10,00:20,0.454,0.266,0.478,0.432,0.396,0.217,0.192,north-northwest,4.4,No
2016/02/10,00:30,0.453,0.265,0.476,0.433,0.396,0.218,0.191,north-northwest,4.9,No
2016/02/10,00:40,0.454,0.266,0.476,0.432,0.395,0.219,0.191,northwest,4.4,No
2016/02/10,00:50,0.454,0.264,0.478,0.434,0.396,0.219,0.191,northwest,4.4,No
2016/02/10,01:00,0.453,0.264,0.477,0.435,0.397,0.218,0.192,northwest,3.6,No
2016/02/10,01:10,0.454,0.266,0.476,0.434,0.399,0.217,0.192,northwest,2.7,No
2016/02/10,01:20,0.455,0.266,0.476,0.432,0.396,0.218,0.192,north-northwest,2.5,No
2016/02/10,01:30,0.453,0.266,0.476,0.432,0.396,0.219,0.192,northwest,2.4,No
2016/02/10,01:40,0.454,0.265,0.479,0.434,0.396,0.219,0.192,northwest,2.5,No
2016/02/10,01:50,0.454,0.265,0.478,0.432,0.398,0.217,0.192,north-northwest,3.6,No
2016/02/10,02:00,0.453,0.266,0.476,0.433,0.397,0.218,0.192,northwest,2.5,No
2016/02/10,02:10,0.454,0.265,0.477,0.431,0.396,0.219,0.191,west,2.4,No
2016/02/10,02:20,0.453,0.264,0.475,0.432,0.397,0.217,0.190,west,2.2,No
2016/02/10,02:30,0.453,0.265,0.478,0.433,0.395,0.218,0.191,west,2.6,No
2016/02/10,02:40,0.454,0.265,0.476,0.432,0.397,0.218,0.191,west-northwest,4.4,No
2016/02/10,02:50,0.454,0.265,0.477,0.430,0.399,0.218,0.192,west,5.3,No
2016/02/10,03:00,0.455,0.264,0.476,0.432,0.395,0.218,0.192,west,5.0,No
2016/02/10,03:10,0.454,0.263,0.477,0.433,0.396,0.219,0.191,west,3.9,No
2016/02/10,03:20,0.453,0.264,0.478,0.432,0.396,0.218,0.191,west-northwest,3.2,No
2016/02/10,03:30,0.454,0.265,0.475,0.432,0.398,0.218,0.191,west-northwest,2.9,No
2016/02/10,03:40,0.455,0.265,0.477,0.431,0.395,0.219,0.191,northwest,2.9,No
2016/02/10,03:50,0.454,0.264,0.478,0.431,0.398,0.217,0.191,west-northwest,2.7,No
2016/02/10,04:00,0.455,0.265,0.477,0.435,0.396,0.219,0.191,northwest,4.0,No
2016/02/10,04:10,0.455,0.266,0.475,0.432,0.398,0.219,0.191,north-northwest,4.5,No
2016/02/10,04:20,0.456,0.266,0.477,0.432,0.398,0.220,0.191,north-northeast,4.2,No
2016/02/10,04:30,0.456,0.265,0.478,0.434,0.397,0.218,0.191,west-northwest,2.5,No
2016/02/10,04:40,0.454,0.265,0.477,0.433,0.397,0.219,0.192,north-northwest,2.3,No
2016/02/10,04:50,0.454,0.265,0.476,0.432,0.397,0.218,0.192,northwest,2.1,No
2016/02/10,05:00,0.455,0.264,0.476,0.433,0.398,0.218,0.192,west-northwest,2.2,No
2016/02/10,05:10,0.455,0.265,0.478,0.432,0.397,0.218,0.191,west-northwest,2.3,No
2016/02/10,05:20,0.453,0.265,0.478,0.432,0.399,0.218,0.192,northwest,3.9,No
2016/02/10,05:30,0.454,0.267,0.476,0.433,0.396,0.219,0.192,west,3.8,No
2016/02/10,05:40,0.453,0.266,0.478,0.433,0.397,0.218,0.191,west-northwest,5.2,No
2016/02/10,05:50,0.454,0.266,0.475,0.432,0.396,0.219,0.191,west-northwest,3.5,No
2016/02/10,06:00,0.455,0.264,0.478,0.432,0.397,0.218,0.192,west-northwest,4.5,No
2016/02/10,06:10,0.454,0.265,0.479,0.434,0.396,0.218,0.192,northwest,2.7,No
2016/02/10,06:20,0.454,0.265,0.478,0.433,0.398,0.219,0.192,northwest,1.6,No
2016/02/10,06:30,0.454,0.265,0.478,0.434,0.398,0.218,0.192,north-northwest,1.5,No
2016/02/10,06:40,0.454,0.264,0.476,0.434,0.394,0.219,0.191,north-northwest,1.8,No
2016/02/10,06:50,0.454,0.265,0.480,0.432,0.397,0.219,0.191,north-northwest,2.9,No
2016/02/10,07:00,0.453,0.265,0.477,0.432,0.397,0.218,0.192,northwest,2.7,No
2016/02/10,07:10,0.455,0.265,0.478,0.433,0.397,0.219,0.192,northwest,3.6,No
2016/02/10,07:20,0.454,0.265,0.477,0.432,0.396,0.217,0.192,west-northwest,4.5,No
2016/02/10,07:30,0.453,0.264,0.478,0.433,0.396,0.219,0.192,west-northwest,6.6,No
2016/02/10,07:40,0.454,0.264,0.477,0.432,0.396,0.218,0.191,west-northwest,6.8,No
2016/02/10,07:50,0.453,0.263,0.477,0.431,0.397,0.217,0.190,west,7.9,No
2016/02/10,08:00,0.454,0.265,0.477,0.432,0.397,0.218,0.191,west-northwest,5.2,No
2016/02/10,08:10,0.455,0.264,0.476,0.432,0.395,0.218,0.190,west-northwest,3.3,No
2016/02/10,08:20,0.456,0.264,0.476,0.432,0.396,0.218,0.191,north-northwest,2.5,No
2016/02/10,08:30,0.452,0.265,0.479,0.430,0.394,0.216,0.192,north-northwest,3.2,No
2016/02/10,08:40,0.452,0.265,0.478,0.431,0.397,0.219,0.189,northwest,2.6,No
2016/02/10,08:50,0.453,0.264,0.477,0.433,0.396,0.218,0.191,north-northwest,2.5,No
2016/02/10,09:00,0.454,0.266,0.477,0.431,0.395,0.218,0.190,northeast,3.3,No
2016/02/10,09:10,0.454,0.265,0.477,0.432,0.396,0.218,0.192,northeast,2.3,No
2016/02/10,09:20,0.452,0.265,0.478,0.433,0.397,0.219,0.193,east-northeast,2.7,No
2016/02/10,09:30,0.455,0.265,0.475,0.430,0.396,0.217,0.191,east-northeast,2.1,No
2016/02/10,09:40,0.455,0.265,0.477,0.431,0.395,0.218,0.192,east,2.0,No
2016/02/10,09:50,0.455,0.265,0.475,0.435,0.397,0.219,0.191,northeast,2.7,No
2016/02/10,10:00,0.456,0.264,0.475,0.432,0.396,0.218,0.190,east-northeast,3.2,No
2016/02/10,10:10,0.453,0.265,0.475,0.431,0.397,0.218,0.191,east-southeast,1.2,No
2016/02/10,10:20,0.455,0.266,0.478,0.434,0.396,0.218,0.191,south-southeast,1.3,No
2016/02/10,10:30,0.457,0.264,0.478,0.431,0.398,0.219,0.191,southeast,1.6,No
2016/02/10,10:40,0.454,0.266,0.476,0.432,0.397,0.218,0.191,south-southeast,1.1,No
2016/02/10,10:50,0.454,0.266,0.478,0.434,0.396,0.218,0.191,southeast,3.2,No
2016/02/10,11:00,0.455,0.264,0.475,0.431,0.398,0.218,0.190,southeast,4.3,No
2016/02/10,11:10,0.449,0.264,0.477,0.432,0.395,0.220,0.191,southeast,4.1,No
2016/02/10,11:20,0.453,0.264,0.477,0.431,0.398,0.217,0.192,southeast,3.3,No
2016/02/10,11:30,0.454,0.264,0.477,0.431,0.397,0.217,0.192,east-southeast,2.8,No
2016/02/10,11:40,0.455,0.265,0.477,0.434,0.398,0.218,0.192,southeast,3.7,No
2016/02/10,11:50,0.457,0.265,0.479,0.433,0.399,0.218,0.193,east-southeast,3.6,No
2016/02/10,12:00,0.456,0.264,0.476,0.431,0.398,0.217,0.192,east-southeast,3.6,No
2016/02/10,12:10,0.457,0.266,0.478,0.432,0.397,0.219,0.191,east-southeast,3.2,No
2016/02/10,12:20,0.457,0.265,0.478,0.433,0.399,0.218,0.194,southeast,4.7,No
2016/02/10,12:30,0.455,0.265,0.477,0.433,0.398,0.218,0.191,southeast,4.1,No
2016/02/10,12:40,0.458,0.266,0.476,0.434,0.398,0.219,0.192,southeast,3.3,No
2016/02/10,12:50,0.455,0.266,0.479,0.433,0.398,0.219,0.191,southeast,1.7,No
2016/02/10,13:00,0.454,0.265,0.477,0.432,0.396,0.218,0.191,southeast,1.2,No
2016/02/10,13:10,0.456,0.266,0.478,0.433,0.397,0.218,0.192,south,1.7,No
2016/02/10,13:20,0.454,0.264,0.479,0.433,0.397,0.217,0.191,south-southeast,3.3,No
2016/02/10,13:30,0.454,0.264,0.474,0.434,0.397,0.218,0.191,south,4.1,No
2016/02/10,13:40,0.457,0.266,0.479,0.433,0.396,0.218,0.191,south,3.8,No
2016/02/10,13:50,0.453,0.264,0.477,0.433,0.399,0.218,0.191,southwest,6.4,No
2016/02/10,14:00,0.456,0.264,0.475,0.430,0.396,0.218,0.190,west-northwest,9.8,No
2016/02/10,14:10,0.452,0.265,0.476,0.432,0.396,0.219,0.190,west-northwest,7.9,No
2016/02/10,14:20,0.455,0.263,0.474,0.430,0.396,0.218,0.191,west-northwest,9.3,No
2016/02/10,14:30,0.455,0.264,0.476,0.432,0.396,0.219,0.190,west-northwest,10.4,No
2016/02/10,14:40,0.454,0.264,0.476,0.431,0.399,0.218,0.191,west-northwest,11.5,No
2016/02/10,14:50,0.455,0.264,0.477,0.432,0.399,0.218,0.193,west-northwest,13.1,No
2016/02/10,15:00,0.457,0.265,0.479,0.435,0.397,0.218,0.190,west-northwest,14.4,No
2016/02/10,15:10,0.457,0.264,0.479,0.434,0.398,0.218,0.193,west-northwest,12.8,No
2016/02/10,15:20,0.456,0.265,0.476,0.433,0.398,0.219,0.192,west-northwest,11.8,No
2016/02/10,15:30,0.458,0.265,0.478,0.435,0.398,0.217,0.192,west-northwest,9.8,No
2016/02/10,15:40,0.456,0.265,0.478,0.434,0.398,0.218,0.192,west-northwest,8.7,No
2016/02/10,15:50,0.456,0.265,0.477,0.433,0.398,0.219,0.192,west,11.2,No
2016/02/10,16:00,0.457,0.264,0.478,0.434,0.397,0.217,0.191,west-northwest,11.7,No
2016/02/10,16:10,0.457,0.264,0.479,0.435,0.397,0.219,0.191,west-northwest,12.3,No
2016/02/10,16:20,0.455,0.265,0.478,0.432,0.398,0.219,0.191,west-northwest,10.6,No
2016/02/10,16:30,0.457,0.265,0.476,0.435,0.397,0.218,0.191,west,11.7,No
2016/02/10,16:40,0.456,0.265,0.478,0.434,0.397,0.216,0.191,west,7.8,No
2016/02/10,16:50,0.456,0.264,0.479,0.435,0.396,0.219,0.190,west-northwest,8.4,No
2016/02/10,17:00,0.455,0.265,0.478,0.432,0.398,0.219,0.191,west-northwest,10.3,No
2016/02/10,17:10,0.455,0.265,0.478,0.433,0.396,0.218,0.191,west-northwest,9.2,No
2016/02/10,17:20,0.455,0.266,0.478,0.434,0.396,0.218,0.192,west,5.6,No
2016/02/10,17:30,0.455,0.266,0.478,0.434,0.395,0.218,0.191,west-northwest,7.8,No
2016/02/10,17:40,0.455,0.265,0.478,0.432,0.398,0.218,0.191,northwest,6.5,No
2016/02/10,17:50,0.455,0.266,0.477,0.434,0.397,0.219,0.192,west-northwest,3.7,No
2016/02/10,18:00,0.455,0.265,0.481,0.433,0.397,0.219,0.191,west-northwest,1.9,No
2016/02/10,18:10,0.456,0.265,0.478,0.433,0.396,0.219,0.190,west,1.1,No
2016/02/10,18:20,0.455,0.264,0.478,0.432,0.397,0.219,0.190,-,CALM,No
2016/02/10,18:30,0.455,0.266,0.479,0.433,0.399,0.218,0.191,southwest,0.7,No
2016/02/10,18:40,0.455,0.265,0.480,0.433,0.395,0.217,0.192,west-northwest,1.4,No
2016/02/10,18:50,0.456,0.265,0.479,0.433,0.396,0.219,0.192,northwest,1.7,No
2016/02/10,19:00,0.455,0.266,0.478,0.431,0.397,0.218,0.191,north,0.9,No
2016/02/10,19:10,0.455,0.265,0.477,0.432,0.397,0.218,0.192,west-northwest,0.8,No
2016/02/10,19:20,0.455,0.265,0.479,0.432,0.398,0.218,0.191,north,0.7,No
2016/02/10,19:30,0.455,0.264,0.477,0.435,0.398,0.218,0.190,-,CALM,No
2016/02/10,19:40,0.454,0.265,0.477,0.432,0.397,0.218,0.192,northwest,0.6,No
2016/02/10,19:50,0.455,0.265,0.480,0.433,0.396,0.219,0.190,south-southwest,0.7,No
2016/02/10,20:00,0.454,0.265,0.478,0.434,0.397,0.219,0.191,west-southwest,1.6,No
2016/02/10,20:10,0.454,0.265,0.478,0.434,0.397,0.218,0.190,west-northwest,2.1,No
2016/02/10,20:20,0.454,0.264,0.478,0.435,0.396,0.217,0.192,west-northwest,3.0,No
2016/02/10,20:30,0.455,0.264,0.479,0.433,0.397,0.218,0.191,west,2.6,No
2016/02/10,20:40,0.455,0.265,0.480,0.433,0.397,0.218,0.191,west,3.9,No
2016/02/10,20:50,0.455,0.265,0.480,0.433,0.397,0.218,0.191,northwest,5.1,No
2016/02/10,21:00,0.455,0.264,0.478,0.435,0.398,0.218,0.192,west-northwest,6.2,No
2016/02/10,21:10,0.455,0.264,0.477,0.434,0.397,0.217,0.191,northwest,7.6,No
2016/02/10,21:20,0.455,0.264,0.478,0.434,0.397,0.219,0.192,west-northwest,5.8,No
2016/02/10,21:30,0.456,0.265,0.479,0.435,0.397,0.218,0.191,west-northwest,5.6,No
2016/02/10,21:40,0.455,0.264,0.478,0.435,0.399,0.218,0.192,west-northwest,4.9,No
2016/02/10,21:50,0.455,0.265,0.477,0.434,0.397,0.220,0.192,northwest,3.5,No
2016/02/10,22:00,0.455,0.265,0.477,0.433,0.398,0.218,0.190,northwest,2.7,No
2016/02/10,22:10,0.454,0.265,0.480,0.432,0.396,0.218,0.191,northwest,2.3,No
2016/02/10,22:20,0.455,0.264,0.477,0.432,0.396,0.219,0.191,northwest,1.8,No
2016/02/10,22:30,0.455,0.265,0.477,0.434,0.396,0.218,0.190,west-northwest,2.8,No
2016/02/10,22:40,0.455,0.266,0.478,0.433,0.397,0.219,0.191,west-northwest,3.5,No
2016/02/10,22:50,0.454,0.265,0.478,0.434,0.398,0.218,0.191,northwest,1.3,No
2016/02/10,23:00,0.456,0.264,0.480,0.432,0.397,0.218,0.193,west-northwest,1.2,No
2016/02/10,23:10,0.456,0.264,0.477,0.433,0.397,0.218,0.191,west-northwest,1.9,No
2016/02/10,23:20,0.456,0.264,0.477,0.433,0.397,0.217,0.191,west-northwest,2.5,No
2016/02/10,23:30,0.454,0.264,0.479,0.435,0.397,0.217,0.191,west-northwest,2.2,No
2016/02/10,23:40,0.453,0.265,0.479,0.434,0.397,0.218,0.192,west,2.9,No
2016/02/10,23:50,0.455,0.265,0.481,0.433,0.397,0.219,0.191,west-southwest,2.2,No
